Location: Andrest
(43.3200°N, 0.0641°E)
Time: 04:05:09
(UTC+00:00)

SL-8 Rocket - Pass Details

Date: 23 April 2021
Orbit: 958 x 989 km, 82.9° (Epoch: 11 May)

Event Time Altitude Azimuth Distance (km) Brightness Sun altitude
Rises 23:49:58 0° 0° (N) 3,698 8.1 -33.8°
Reaches altitude 10° 23:52:49 10° 11° (N) 2,750 7.1 -33.8°
Maximum altitude 23:58:21 31° 72° (ENE) 1,656 5.2 -33.8°
Enters shadow 23:58:22 31° 72° (ENE) 1,656 5.2 -33.8°
